Zurück zum Katalog

SL-14 R/B

AktivPO
NORAD 12849·ROCKET BODY·🇷🇺 Russia

Gestartet Sep 21, 1981 von Plesetsk Cosmodrome

Loading…

Nächste Überflüge (nächste 24 Stunden)

TLE

AktuellSource: Space-Track

Epoche: Sep 14, 2026, 11:16 UTC

1 12849U 81094B   26257.46951484  .00000661  00000-0  59128-4 0  9991
2 12849  82.4829  85.3931 0866509 301.9162  50.0508 13.58488380198356

Verfolge SL-14 R/B in Echtzeit mit AllMySat

Download on the App Store